| time (UTC) | temp C | wind direction | speed KPH | gust KPH | rain 1hr cm | rain 24hr cm | rain mn cm | humidity % | barometer mb |
| 20260510193033 | 17 | 305 | 1.6 | 6.4 | 0.00 | 0.41 | 0.03 | 63 | 1012.3 |
| 20260510191535 | 17 | 113 | 1.6 | 6.4 | 0.00 | 0.41 | 0.03 | 66 | 1012.2 |
| 20260510190037 | 17 | 277 | 0.0 | 4.8 | 0.00 | 0.41 | 0.03 | 65 | 1012.3 |
| 20260510184532 | 17 | 273 | 1.6 | 4.8 | 0.00 | 0.53 | 0.03 | 64 | 1012.2 |
| 20260510183037 | 18 | 284 | 1.6 | 6.4 | 0.00 | 0.53 | 0.03 | 65 | 1012.1 |
| 20260510181545 | 16 | 257 | 1.6 | 4.8 | 0.00 | 0.53 | 0.03 | 76 | 1012.1 |
| 20260510180039 | 16 | 248 | 1.6 | 8.0 | 0.00 | 0.53 | 0.03 | 76 | 1012.2 |
| 20260510174536 | 15 | 274 | 1.6 | 4.8 | 0.00 | 0.76 | 0.03 | 79 | 1012.3 |
| 20260510173034 | 16 | 221 | 1.6 | 6.4 | 0.00 | 0.76 | 0.03 | 73 | 1012.1 |
| 20260510171536 | 15 | 0 | 0.0 | 3.2 | 0.00 | 0.76 | 0.03 | 76 | 1012.1 |
| 20260510170032 | 16 | 0 | 0.0 | 3.2 | 0.00 | 0.76 | 0.03 | 71 | 1012.1 |
| 20260510164534 | 18 | 269 | 1.6 | 6.4 | 0.00 | 0.89 | 0.03 | 64 | 1012.0 |
| 20260510163032 | 18 | 273 | 1.6 | 4.8 | 0.00 | 0.89 | 0.03 | 67 | 1012.0 |
| 20260510161530 | 17 | 191 | 1.6 | 6.4 | 0.00 | 0.89 | 0.03 | 69 | 1012.3 |
| 20260510160037 | 17 | 195 | 1.6 | 4.8 | 0.00 | 0.89 | 0.03 | 68 | 1012.3 |
| 20260510154536 | 16 | 228 | 0.0 | 3.2 | 0.00 | 1.07 | 0.03 | 71 | 1012.2 |
| 20260510153032 | 16 | 248 | 0.0 | 4.8 | 0.00 | 1.07 | 0.03 | 68 | 1012.1 |
| 20260510151539 | 17 | 273 | 1.6 | 4.8 | 0.00 | 1.07 | 0.03 | 69 | 1012.0 |
| 20260510150042 | 16 | 150 | 1.6 | 3.2 | 0.00 | 1.07 | 0.03 | 74 | 1012.1 |
| 20260510144536 | 16 | 257 | 1.6 | 4.8 | 0.00 | 1.17 | 0.03 | 74 | 1012.1 |
| 20260510143034 | 15 | 231 | 1.6 | 6.4 | 0.00 | 1.17 | 0.03 | 78 | 1012.0 |
| 20260510141534 | 14 | 196 | 1.6 | 4.8 | 0.00 | 1.17 | 0.03 | 85 | 1012.0 |
| 20260510140034 | 12 | 125 | 1.6 | 4.8 | 0.00 | 1.17 | 0.03 | 85 | 1012.1 |
| 20260510134532 | 12 | 247 | 1.6 | 4.8 | 0.00 | 1.17 | 0.03 | 85 | 1012.3 |
| 20260510133031 | 13 | 143 | 1.6 | 4.8 | 0.00 | 1.17 | 0.03 | 85 | 1012.0 |
| 20260510131534 | 13 | 223 | 1.6 | 4.8 | 0.00 | 1.17 | 0.03 | 85 | 1011.8 |
| 20260510130034 | 12 | 244 | 1.6 | 8.0 | 0.00 | 1.17 | 0.03 | 90 | 1012.0 |
| 20260510124531 | 11 | 249 | 1.6 | 4.8 | 0.00 | 1.17 | 0.03 | 92 | 1011.9 |
| 20260510123033 | 10 | 178 | 0.0 | 4.8 | 0.00 | 1.17 | 0.03 | 95 | 1011.9 |
| 20260510121531 | 10 | 215 | 0.0 | 1.6 | 0.00 | 1.17 | 0.03 | 98 | 1012.0 |
| 20260510120031 | 9 | 246 | 0.0 | 4.8 | 0.00 | 1.17 | 0.03 | 98 | 1011.9 |
| 20260510114537 | 9 | 0 | 0.0 | 1.6 | 0.00 | 1.17 | 0.03 | 98 | 1011.6 |
| 20260510113032 | 9 | 0 | 0.0 | 3.2 | 0.00 | 1.17 | 0.03 | 98 | 1011.9 |
| 20260510111535 | 8 | 207 | 0.0 | 1.6 | 0.00 | 1.17 | 0.03 | 98 | 1011.8 |
| 20260510110033 | 8 | 0 | 0.0 | 1.6 | 0.00 | 1.17 | 0.03 | 99 | 1011.5 |
| 20260510104533 | 8 | 0 | 0.0 | 1.6 | 0.00 | 1.17 | 0.03 | 99 | 1011.0 |
| 20260510103031 | 8 | 0 | 0.0 | 3.2 | 0.00 | 1.17 | 0.03 | 99 | 1010.8 |
| 20260510101534 | 8 | 211 | 0.0 | 1.6 | 0.00 | 1.17 | 0.03 | 99 | 1010.3 |
| 20260510100040 | 8 | 83 | 0.0 | 1.6 | 0.00 | 1.17 | 0.03 | 99 | 1010.3 |
| 20260510094544 | 8 | 0 | 0.0 | 1.6 | 0.00 | 1.17 | 0.03 | 99 | 1010.3 |
| 20260510093035 | 8 | 0 | 0.0 | 1.6 | 0.00 | 1.17 | 0.03 | 99 | 1009.9 |
| 20260510091541 | 8 | 0 | 0.0 | 1.6 | 0.00 | 1.17 | 0.03 | 99 | 1010.2 |
| 20260510090034 | 8 | 0 | 0.0 | 1.6 | 0.00 | 1.17 | 0.03 | 99 | 1010.2 |
| 20260510084535 | 7 | 0 | 0.0 | 0.0 | 0.00 | 1.17 | 0.03 | 99 | 1010.6 |
| 20260510083049 | 7 | 0 | 0.0 | 3.2 | 0.00 | 1.17 | 0.03 | 99 | 1010.6 |
| 20260510081536 | 7 | 0 | 0.0 | 0.0 | 0.00 | 1.17 | 0.03 | 99 | 1010.8 |
| 20260510080032 | 7 | 0 | 0.0 | 0.0 | 0.00 | 1.17 | 0.03 | 99 | 1010.6 |
| 20260510074533 | 7 | 0 | 0.0 | 1.6 | 0.00 | 1.17 | 0.03 | 99 | 1010.6 |
| 20260510073035 | 7 | 0 | 0.0 | 1.6 | 0.00 | 1.17 | 0.03 | 99 | 1010.5 |
| 20260510071538 | 6 | 0 | 0.0 | 1.6 | 0.00 | 1.17 | 0.03 | 98 | 1010.5 |
| 20260510070037 | 6 | 0 | 0.0 | 1.6 | 0.03 | 1.17 | 0.03 | 98 | 1010.3 |
| 20260510064531 | 6 | 0 | 0.0 | 0.0 | 0.03 | 1.17 | 0.03 | 98 | 1010.8 |
| 20260510063041 | 7 | 0 | 0.0 | 0.0 | 0.03 | 1.17 | 0.03 | 98 | 1011.0 |
| 20260510061533 | 7 | 0 | 0.0 | 0.0 | 0.03 | 1.17 | 0.03 | 98 | 1010.8 |
| 20260510060040 | 7 | 0 | 0.0 | 0.0 | 0.00 | 1.14 | 0.00 | 98 | 1010.8 |
| 20260510054537 | 7 | 0 | 0.0 | 0.0 | 0.00 | 1.14 | 0.00 | 98 | 1010.8 |
| 20260510053030 | 7 | 0 | 0.0 | 0.0 | 0.00 | 1.14 | 0.00 | 98 | 1010.7 |
| 20260510051534 | 7 | 0 | 0.0 | 1.6 | 0.00 | 1.14 | 0.00 | 98 | 1010.7 |
| 20260510050029 | 7 | 0 | 0.0 | 1.6 | 0.00 | 1.14 | 0.00 | 98 | 1010.9 |
| 20260510044533 | 7 | 0 | 0.0 | 1.6 | 0.00 | 1.14 | 0.00 | 98 | 1011.0 |
| 20260510043035 | 7 | 16 | 0.0 | 1.6 | 0.00 | 1.14 | 0.00 | 98 | 1011.1 |
| 20260510041535 | 7 | 0 | 0.0 | 3.2 | 0.00 | 1.14 | 0.00 | 98 | 1011.3 |
| 20260510040030 | 7 | 0 | 0.0 | 1.6 | 0.00 | 1.14 | 0.00 | 97 | 1011.2 |
| 20260510034532 | 7 | 223 | 0.0 | 3.2 | 0.00 | 1.14 | 1.14 | 98 | 1011.1 |
| 20260510033035 | 6 | 0 | 0.0 | 3.2 | 0.00 | 1.14 | 1.14 | 98 | 1011.2 |
| 20260510031531 | 6 | 111 | 0.0 | 1.6 | 0.00 | 1.14 | 1.14 | 98 | 1011.1 |
| 20260510030033 | 6 | 0 | 0.0 | 3.2 | 0.00 | 1.14 | 1.14 | 97 | 1011.5 |
| 20260510024530 | 6 | 102 | 0.0 | 1.6 | 0.00 | 1.14 | 1.14 | 97 | 1011.8 |
| 20260510023034 | 6 | 0 | 0.0 | 1.6 | 0.00 | 1.14 | 1.14 | 97 | 1011.7 |
| 20260510021534 | 6 | 0 | 0.0 | 1.6 | 0.00 | 1.14 | 1.14 | 97 | 1011.7 |
| 20260510020034 | 6 | 44 | 0.0 | 3.2 | 0.00 | 1.14 | 1.14 | 97 | 1011.7 |
| 20260510014532 | 6 | 0 | 0.0 | 1.6 | 0.00 | 1.14 | 1.14 | 96 | 1011.7 |
| 20260510013032 | 6 | 0 | 0.0 | 4.8 | 0.00 | 1.14 | 1.14 | 97 | 1011.8 |
| 20260510011532 | 6 | 192 | 0.0 | 3.2 | 0.00 | 1.14 | 1.14 | 97 | 1011.9 |
| 20260510010032 | 6 | 0 | 0.0 | 1.6 | 0.00 | 1.14 | 1.14 | 96 | 1012.0 |
| 20260510004531 | 6 | 250 | 0.0 | 1.6 | 0.00 | 1.14 | 1.14 | 96 | 1011.9 |
| 20260510003040 | 6 | 0 | 0.0 | 1.6 | 0.00 | 1.14 | 1.14 | 95 | 1011.6 |
| 20260510001533 | 7 | 182 | 0.0 | 6.4 | 0.00 | 1.14 | 1.14 | 95 | 1011.4 |
| 20260510000031 | 7 | 113 | 0.0 | 6.4 | 0.00 | 1.14 | 1.14 | 95 | 1011.1 |
| 20260509234539 | 7 | 64 | 0.0 | 3.2 | 0.00 | 1.14 | 1.14 | 96 | 1010.9 |
| 20260509233036 | 7 | 0 | 0.0 | 4.8 | 0.00 | 1.14 | 1.14 | 96 | 1011.0 |
| 20260509231540 | 7 | 263 | 0.0 | 1.6 | 0.00 | 1.14 | 1.14 | 95 | 1010.9 |
| 20260509230034 | 7 | 0 | 0.0 | 1.6 | 0.00 | 1.14 | 1.14 | 96 | 1011.0 |
| 20260509224534 | 7 | 323 | 0.0 | 1.6 | 0.00 | 1.14 | 1.14 | 96 | 1011.0 |
| 20260509223031 | 7 | 298 | 0.0 | 3.2 | 0.03 | 1.14 | 1.14 | 96 | 1011.0 |
| 20260509221535 | 7 | 123 | 0.0 | 4.8 | 0.03 | 1.14 | 1.14 | 96 | 1011.0 |
| 20260509220035 | 6 | 0 | 0.0 | 1.6 | 0.03 | 1.14 | 1.14 | 96 | 1011.2 |
| 20260509214534 | 7 | 0 | 0.0 | 3.2 | 0.05 | 1.14 | 1.14 | 96 | 1011.2 |
| 20260509213032 | 6 | 175 | 0.0 | 3.2 | 0.08 | 1.12 | 1.12 | 95 | 1011.3 |
| 20260509211531 | 7 | 302 | 0.0 | 3.2 | 0.13 | 1.12 | 1.12 | 95 | 1011.4 |
| 20260509210033 | 7 | 94 | 0.0 | 3.2 | 0.18 | 1.12 | 1.12 | 94 | 1011.3 |
| 20260509204531 | 7 | 0 | 1.6 | 6.4 | 0.18 | 1.07 | 1.07 | 94 | 1011.4 |
| 20260509203039 | 7 | 0 | 0.0 | 4.8 | 0.20 | 1.04 | 1.04 | 94 | 1011.4 |
| 20260509201530 | 7 | 178 | 1.6 | 8.0 | 0.20 | 0.99 | 0.99 | 94 | 1011.7 |
| 20260509200030 | 7 | 0 | 0.0 | 3.2 | 0.18 | 0.94 | 0.94 | 94 | 1011.8 |
| 20260509194532 | 7 | 0 | 0.0 | 1.6 | 0.15 | 0.89 | 0.89 | 94 | 1011.8 |